Preview of NWS' New Version of Forecast
This preview is not operational and should not be used for support decisions.

Regional Weather Roundup (RWR)

Issued by National Weather Service (NWS)

                            
000
ASPQ40 PGUM 220510
RWRPQ 
WEATHER ROUNDUP FOR THE MARIANAS AND MICRONESIA
NATIONAL WEATHER SERVICE TIYAN GU
300 PM CHST MON APR 22 2019

GUZ001>004-220600-
MARIANA ISLANDS-
  
CITY           SKY/WX    TMP DP  RH WIND       PRES   REMARKS
GUAM AIRPORT   MOSUNNY   88  72  58 E17       29.86S HX  94           
ANDERSEN AFB   PTSUNNY   84  81  89 E13       29.87F HX  98           
ROTA AIRPORT   MOSUNNY   84  73  70 E16       29.85F HX  91           
TINIAN AP      MOSUNNY   90  73  58 E14       29.84F HX  98           
SAIPAN AP      MOSUNNY   88  73  62 E13       29.86F HX  96           

$$

PMZ161-220600-
REPUBLIC OF PALAU-
  
CITY           SKY/WX    TMP DP  RH WIND       PRES   REMARKS
KOROR AP       PTSUNNY   86  75  70 NE17G25   29.76F HX  95           
KOROR WSO      NOT AVBL                                               

$$

PMZ171>174-220600-
FEDERATED STATES OF MICRONESIA-
  
CITY           SKY/WX    TMP DP  RH WIND       PRES   REMARKS
YAP AIRPORT    PTSUNNY   90  77  66 E10       29.79F HX 102           
CHUUK AP       PTSUNNY   88  77  70 NE10      29.75F HX 100           
POHNPEI AP     NOT AVBL                                               
POHNPEI WSO    CLOUDY    84  77  79 E10       29.78S HX  94           
KOSRAE AP      NOT AVBL                                               

$$

PMZ181-220600-
REPUBLIC OF THE MARSHALL ISLANDS-
  
CITY           SKY/WX    TMP DP  RH WIND       PRES   REMARKS
KWAJALEIN AP   PTSUNNY   86  75  70 E21       29.79S HX  95           
MAJURO AP      PTSUNNY   84  77  79 NE25      29.78S HX  94           
MAJURO WSO     PTSUNNY   86  75  70 E10       29.77S HX  95           

$$